Flag for Brazil Weather past 2 weeks in Salvador, Bahia, Brazil

Now
84 °F

Scattered clouds.


Feels Like: 88 °F
Forecast: 77 / 81 °F
Wind: 12 mph from Southeast

Location: Salvador Aeroporto

Current Time: May 24, 2015 at 3:17:33 PM

Latest Report: May 24, 2015 at 2:00 PM


Visibility: N/A

Pressure: 29.95 "Hg

Humidity: 62%

Dew point: 70 °F

Location of SalvadorLocation

Historic Weather in Salvador — Graph

°F

Salvador temperature yesterday

Maximum temperature yesterday: 84 °F (at 11:00 AM)
Minimum temperature yesterday: 77 °F (at 12:00 AM)
Average temperature yesterday: 80 °F

Past Weeks' High & Low Weather Summary

 TemperatureHumidityPressure
High86 °F (May 12, 12:00 PM)100% (May 9, 8:00 PM)30.09 "Hg (May 9, 8:00 PM)
Low37 °F (May 15, 5:00 AM)55% (May 23, 11:00 AM)29.86 "Hg (May 12, 3:00 PM)
Average77 °F78%30.00 "Hg
* Reported May 9 2:00 PM — May 24 2:00 PM, Salvador, Weather by CustomWeather, © 2015

Note: Actual official high and low records may vary slightly from our data, if they occured in-between our weather recording intervals... More about our weather records

Advertising

Salvador weather history for previous 24 hours

 ConditionsComfort  
Time TempWeatherWind HumidityBarometerVisibility
2:00 PM
Sun, May 24
84 °FScattered clouds.12 mph62%29.95 "HgN/A
1:00 PM84 °FScattered clouds.13 mph62%29.98 "HgN/A
12:00 PM84 °FScattered clouds.10 mph62%30.01 "HgN/A
11:00 AM84 °FScattered clouds.12 mph62%30.04 "HgN/A
10:00 AM84 °FScattered clouds.9 mph62%30.04 "HgN/A
9:00 AM82 °FScattered clouds.7 mph70%30.04 "HgN/A
8:00 AM81 °FScattered clouds.7 mph70%30.01 "HgN/A
7:00 AM79 °FScattered clouds.7 mph74%30.01 "HgN/A
6:00 AM79 °FBroken clouds.9 mph74%29.98 "HgN/A
5:00 AM79 °FPartly cloudy.9 mph70%29.98 "HgN/A
4:00 AM77 °FPartly cloudy.12 mph79%29.98 "HgN/A
3:00 AM79 °FPartly cloudy.9 mph70%29.98 "HgN/A
2:00 AM79 °FPartly cloudy.8 mph74%29.98 "HgN/A
1:00 AM77 °FLight rain. Partly cloudy.14 mph74%30.01 "HgN/A
12:00 AM81 °FPassing clouds.9 mph66%30.04 "HgN/A
11:00 PM
Sat, May 23
81 °FPassing clouds.10 mph66%30.04 "HgN/A
10:00 PM81 °FPassing clouds.9 mph66%30.07 "HgN/A
9:00 PM81 °FPassing clouds.12 mph62%30.07 "HgN/A
8:00 PM81 °FPartly cloudy.10 mph66%30.04 "HgN/A
7:00 PM81 °FPartly cloudy.10 mph62%30.04 "HgN/A
6:00 PM79 °FPartly cloudy.7 mph74%30.01 "HgN/A
5:00 PM81 °FScattered clouds.9 mph66%30.01 "HgN/A
4:00 PM82 °FScattered clouds.13 mph58%30.01 "HgN/A
3:00 PM82 °FScattered clouds.13 mph58%30.01 "HgN/A
Weather by CustomWeather, © 2015

See weather overviewHow to use our weather pages